Theta_e
315 316 316 317 317 317 316 316 316 315 316 315 315 315 314 314 313 304 297 300 306 314 315 309 311 312 315 314 317 315 302 298 300 300 300 306 305 310 314 315 315 318 315 318 323
317 317 316 316 316 316 317 316 316 316 316 315 315 315 314 314 305 299 307 312 314 315 305 303 302 305 303 308 312 307 301 301 305 304 302 306 306 306 308 312 313 315 316 319 324
316 316 316 316 316 315 316 316 316 315 315 315 314 314 314 310 292 291 312 317 313 311 306 306 304 304 300 304 307 306 300 306 307 306 307 306 305 308 307 306 313 314 314 318 322
317 316 315 315 315 315 315 315 315 314 314 314 314 314 313 302 281 296 311 312 312 306 305 303 299 295 296 296 303 299 304 305 307 309 307 305 308 305 306 309 312 318 314 318 320
317 316 315 315 315 314 314 315 315 314 314 314 313 312 304 292 292 302 309 307 303 301 300 301 297 295 291 296 299 298 301 306 308 308 308 309 306 306 306 310 313 317 314 317 320
316 316 315 314 314 314 314 314 314 313 313 313 312 310 297 287 300 301 302 301 300 299 299 301 298 299 294 294 294 300 300 302 305 307 308 306 306 307 307 311 311 315 313 316 319
315 315 314 314 313 313 313 313 313 313 313 313 311 306 297 292 299 301 301 299 301 299 295 299 301 296 295 292 298 298 294 298 302 305 304 307 302 303 309 312 313 317 316 314 317
314 313 313 312 312 312 312 312 312 313 313 312 310 303 290 300 298 300 301 299 301 301 299 300 301 298 295 296 294 292 294 289 297 303 305 305 296 304 309 310 310 314 315 315 315
313 313 312 312 312 311 312 312 312 312 312 312 303 294 288 301 294 299 302 296 296 297 299 301 299 293 294 288 285 289 284 289 293 301 302 302 296 303 307 308 308 313 313 314 313
313 313 312 311 312 313 312 310 309 308 302 304 300 288 291 288 294 297 298 297 293 292 293 294 292 287 287 285 276 281 284 289 291 299 300 298 299 301 305 306 307 312 312 310 311
313 313 312 313 312 310 302 294 290 286 291 286 286 288 290 294 297 294 297 295 294 290 284 290 283 279 283 286 286 286 286 288 293 298 298 297 299 302 305 305 306 310 312 311 310
312 312 311 311 310 308 298 292 295 294 286 291 291 291 294 294 288 292 298 290 289 283 286 283 281 285 287 287 285 285 284 286 291 296 295 295 294 298 301 304 308 309 311 313 312
311 310 311 311 309 299 294 293 299 294 283 285 289 289 290 293 289 290 294 291 286 283 283 280 282 287 286 285 283 284 284 285 287 294 296 293 291 294 300 302 306 312 314 315 313
310 310 311 310 298 295 292 298 298 292 272 279 283 289 293 292 285 295 296 292 288 284 285 284 288 285 284 283 285 279 287 287 286 290 286 293 283 291 296 299 303 307 313 314 315
309 308 308 306 294 291 295 297 296 287 262 280 283 293 290 285 287 288 295 292 285 285 284 281 285 284 282 284 287 284 290 290 287 289 289 290 287 287 297 297 300 306 312 314 316
309 308 305 298 295 294 296 294 288 271 262 277 283 282 282 284 286 288 289 294 293 287 287 284 289 288 287 288 288 292 288 289 291 286 280 286 287 285 294 298 301 305 311 314 316
308 308 301 298 290 295 293 285 271 263 276 274 279 282 280 280 282 283 282 282 282 279 279 284 286 289 291 286 292 289 286 279 278 278 274 287 287 288 295 298 303 304 310 315 317
306 304 300 296 294 293 286 277 262 264 266 279 281 280 276 279 280 280 280 280 286 283 278 278 277 287 290 287 287 286 286 280 271 275 280 289 283 288 295 300 305 307 313 314 315
302 293 293 294 295 289 281 263 266 268 278 279 278 269 268 276 277 277 277 280 283 284 276 276 279 288 289 289 292 288 285 289 283 284 277 283 289 293 298 299 303 307 312 313 313
291 289 290 293 291 285 274 272 269 279 281 277 267 271 269 270 273 275 276 282 282 285 285 282 277 288 289 289 293 291 291 282 285 271 273 282 285 289 290 296 301 307 310 311 309
288 282 289 292 288 279 268 268 275 282 282 274 270 275 271 275 276 273 276 282 284 283 285 284 282 283 287 284 287 290 287 289 288 285 281 279 282 290 290 292 302 306 308 305 303
284 275 289 289 276 267 266 272 283 282 283 282 280 280 275 274 273 274 275 279 285 284 280 284 282 279 282 286 291 292 290 291 280 281 284 283 284 295 295 297 304 300 299 299 299
284 282 289 286 269 267 272 277 281 282 282 282 280 280 278 273 271 272 278 283 284 282 281 285 282 277 279 285 289 287 289 292 290 286 283 281 285 295 296 296 297 295 296 295 294
279 273 276 279 277 278 273 271 275 283 283 284 282 282 275 269 277 273 279 282 284 284 287 287 284 279 276 280 284 284 286 292 289 284 283 283 285 290 293 292 293 294 294 294 293
278 273 277 266 270 277 276 277 277 277 282 285 278 273 276 270 273 272 278 280 283 284 282 281 279 280 282 284 285 285 285 289 287 286 283 284 284 289 293 292 292 293 293 292 291
276 274 280 273 277 278 278 275 278 280 280 277 276 276 280 276 275 276 279 280 279 281 280 281 277 280 279 283 285 283 284 287 289 290 286 286 285 292 293 293 292 292 292 291 291
281 282 280 273 274 272 274 278 279 280 281 282 280 277 276 275 281 283 283 283 282 279 278 278 276 276 275 280 282 279 281 283 288 290 287 282 286 293 292 292 292 292 292 291 291
Wind_Speed
10 11 10 11 11 11 10 10 11 11 11 12 12 12 14 16 18 4 6 8 7 15 13 7 4 6 7 5 5 2 8 15 18 13 5 1 2 1 0 5 1 3 2 3 15
12 11 10 10 11 11 10 10 11 11 10 11 12 12 14 15 8 9 10 7 12 10 4 3 5 7 4 4 5 9 10 19 9 7 6 5 3 1 1 2 4 2 4 10 17
11 11 9 10 10 10 10 9 10 9 10 11 11 11 13 10 5 6 7 7 15 10 2 2 2 3 6 5 5 6 18 7 9 8 12 7 3 6 4 3 6 9 7 14 16
10 9 7 9 10 10 11 9 9 9 10 10 10 11 11 3 7 1 6 16 12 8 0 2 3 2 4 11 5 12 9 9 8 6 7 8 4 4 7 8 2 8 14 16 18
8 6 6 8 9 10 9 9 9 10 10 9 8 9 4 3 11 5 14 9 8 6 4 3 5 2 6 7 9 20 18 8 10 11 9 6 9 10 8 8 2 9 12 17 16
4 4 4 6 8 9 9 9 9 10 10 9 6 4 2 9 4 6 7 8 3 2 4 3 3 4 7 8 13 12 16 15 16 16 13 12 10 7 7 9 4 13 14 15 21
6 4 5 6 8 8 8 8 9 10 9 7 5 2 6 19 3 7 6 5 3 2 2 4 4 2 6 7 6 13 18 17 16 15 10 9 22 23 10 3 7 11 12 15 14
6 6 6 6 7 8 9 10 10 10 9 6 3 1 8 5 2 7 5 6 7 6 4 7 4 6 3 6 7 8 10 19 11 12 7 11 27 12 13 10 13 10 9 11 15
8 7 7 7 8 10 12 12 11 9 8 7 1 3 11 5 4 7 8 6 5 6 5 4 3 6 4 5 8 8 15 19 16 17 11 20 16 10 8 15 15 11 12 13 11
8 8 8 9 10 11 15 14 6 3 3 2 3 2 5 5 4 5 5 6 6 2 3 4 5 4 3 8 15 14 10 16 16 7 21 20 19 6 9 16 19 14 13 14 14
8 9 10 10 11 14 9 4 7 5 4 5 6 5 13 6 6 5 4 2 3 3 5 5 4 12 21 18 18 17 19 15 11 7 9 18 15 14 11 5 13 14 15 17 18
8 10 10 11 11 11 4 5 2 3 12 8 11 8 8 3 7 9 4 3 3 7 4 3 14 21 14 12 17 20 19 16 17 11 7 8 8 11 12 14 8 13 16 17 15
8 10 11 13 6 5 4 1 5 1 4 8 5 3 7 4 7 15 6 3 7 9 9 15 22 10 17 15 17 20 20 15 20 6 8 2 6 12 10 16 12 10 15 17 20
9 11 11 12 6 2 2 6 5 1 5 8 5 3 3 5 7 7 7 8 5 7 6 12 15 21 17 18 15 20 19 19 15 9 6 13 8 11 17 18 18 15 15 17 18
10 13 10 8 2 3 5 6 4 4 5 5 8 2 8 2 8 5 2 4 15 14 5 8 11 9 19 28 15 16 15 18 23 10 4 9 7 5 9 15 20 20 16 17 17
9 11 8 4 2 1 5 4 4 8 8 8 5 8 11 5 4 7 5 2 8 11 10 22 12 12 18 20 20 5 4 17 4 6 6 10 11 5 9 21 21 18 14 17 16
9 6 4 1 3 6 3 4 7 5 6 9 6 6 12 6 8 4 8 9 6 9 7 19 9 4 7 6 15 16 9 4 7 5 6 5 11 14 5 5 20 26 16 15 15
11 5 3 3 4 3 4 8 4 4 6 5 6 11 4 9 5 8 6 6 3 11 13 8 8 6 9 7 11 23 11 5 8 7 4 2 11 7 2 6 12 17 15 17 16
6 3 2 4 4 3 7 5 8 6 4 7 11 6 7 6 2 8 5 4 4 10 9 6 6 2 7 3 3 14 8 4 4 5 4 5 4 8 2 8 16 17 18 17 16
3 3 3 8 3 5 7 6 3 3 4 3 2 2 4 6 8 8 5 3 11 12 14 6 10 1 2 3 4 7 8 3 2 4 3 4 4 1 6 4 17 17 18 16 15
4 4 4 6 3 6 3 6 5 5 3 2 3 4 5 4 5 5 7 10 11 17 15 10 5 12 5 2 1 4 3 2 4 1 2 2 2 1 8 10 17 15 14 15 15
3 3 4 3 6 2 1 3 5 4 3 4 3 4 4 3 3 3 5 8 15 17 18 6 6 8 7 8 7 2 4 1 3 2 1 2 2 5 8 8 10 13 13 13 12
2 3 3 4 4 4 5 4 2 4 4 5 4 1 1 2 4 4 5 8 10 13 17 10 6 9 10 4 8 7 5 2 4 4 3 2 0 7 9 10 10 15 12 12 13
4 4 5 5 1 3 2 4 4 3 5 4 7 4 3 3 2 6 9 8 16 8 24 10 4 9 8 7 5 6 6 2 5 2 4 3 4 9 9 9 9 11 12 11 11
4 0 2 4 5 1 1 2 3 4 3 1 5 1 3 4 4 2 7 13 10 11 15 9 4 10 12 7 6 5 9 14 7 4 5 6 6 9 8 8 7 10 11 12 12
5 4 1 2 2 3 1 4 3 4 3 5 3 7 6 3 5 9 9 9 5 11 15 11 6 9 5 8 7 5 17 12 11 5 5 7 7 5 5 9 9 9 11 10 9
1 2 4 3 2 3 2 3 4 6 3 2 6 7 5 6 7 10 11 10 11 9 9 8 9 8 7 13 10 5 9 7 3 13 5 9 5 5 8 10 9 8 8 8 8
Wind_Direction
313 310 315 315 309 303 306 308 310 314 312 317 321 328 330 327 325 316 273 232 286 295 314 332 355 336 299 244 206 179 230 231 221 209 233 176 140 22 19 118 276 184 131 160 141
306 295 293 303 309 316 304 301 305 306 308 310 317 323 327 328 306 276 248 267 3 346 312 327 324 358 300 259 219 211 237 234 233 194 211 181 153 107 176 170 171 217 66 135 153
305 299 302 302 299 303 305 300 302 311 305 306 313 320 333 335 322 246 245 3 351 354 250 183 293 313 255 287 238 219 242 247 241 207 220 235 216 176 182 236 215 202 162 161 161
292 292 310 304 302 306 303 299 296 298 299 305 314 325 337 342 304 310 355 332 342 343 19 178 184 254 259 240 264 268 239 232 255 255 222 213 173 202 180 225 356 235 158 158 171
296 292 301 298 305 306 302 295 299 302 303 307 322 336 6 360 252 299 316 339 331 343 274 193 194 179 243 287 283 262 275 266 239 247 241 225 207 221 201 236 74 122 159 173 175
353 332 312 310 303 303 301 298 301 305 307 310 326 31 26 286 261 307 340 324 285 317 321 234 243 244 262 263 272 313 303 279 254 246 236 240 238 185 207 229 196 156 182 182 170
25 17 360 330 311 306 303 306 309 305 298 302 297 136 261 251 261 308 331 270 261 210 256 244 248 246 333 302 292 278 278 285 257 243 240 219 252 232 224 195 196 182 198 183 175
33 32 20 340 326 325 317 308 299 296 291 282 296 266 254 260 258 277 256 272 248 255 204 245 249 245 217 297 304 293 261 248 250 218 225 166 253 221 215 199 225 190 186 197 191
35 33 20 355 345 330 313 295 284 283 278 284 251 140 263 302 253 249 196 246 270 261 231 244 177 205 184 253 281 230 254 234 255 213 203 210 249 210 211 209 216 199 184 194 190
30 25 19 356 348 333 312 302 297 337 343 103 101 15 270 274 299 284 247 238 241 305 313 149 193 205 197 203 244 240 243 249 225 219 211 222 235 267 227 214 214 198 184 190 185
31 24 16 13 358 343 341 12 12 344 32 236 256 248 288 280 286 256 280 294 191 170 189 205 175 218 231 223 235 258 265 251 222 237 253 222 236 227 228 232 215 198 190 189 197
37 37 14 355 350 358 31 62 82 236 302 246 250 246 271 271 291 267 157 213 188 233 190 261 235 236 244 230 236 243 260 263 253 221 238 289 246 237 242 235 208 208 196 191 181
34 19 355 341 354 40 69 349 301 242 287 300 236 255 272 164 265 294 176 222 218 247 232 236 247 239 224 221 234 247 244 255 250 173 216 259 263 254 242 236 211 194 200 191 186
21 12 354 343 47 339 353 314 308 174 40 288 336 300 333 296 269 238 219 205 232 254 236 249 264 231 236 227 213 246 222 244 274 174 214 169 261 221 223 226 216 200 200 194 183
22 16 11 45 223 49 311 321 311 54 4 272 295 305 336 216 292 312 294 250 257 243 192 245 234 222 217 219 182 245 207 245 230 214 203 189 236 252 181 207 205 194 194 193 180
15 10 8 24 29 35 330 333 32 40 266 322 313 327 340 294 275 301 307 266 293 276 224 249 225 247 217 223 207 162 215 243 121 202 205 193 205 245 197 204 204 200 188 184 177
359 357 47 65 309 334 350 44 27 123 336 300 315 336 327 297 308 320 314 318 320 316 322 306 214 184 198 241 207 188 192 167 202 207 195 194 195 241 214 249 204 188 171 167 168
356 22 4 87 324 351 53 47 87 237 243 312 301 321 338 354 301 325 302 318 10 353 308 337 323 182 166 238 173 182 216 174 171 168 146 188 223 237 255 276 232 189 155 167 163
13 346 19 351 334 65 68 47 210 207 263 308 316 28 328 344 319 346 301 289 329 3 335 291 251 281 257 217 203 170 204 252 192 55 65 210 266 274 316 271 177 158 147 164 164
68 19 346 322 329 64 75 253 232 232 316 35 37 88 321 321 343 337 314 292 332 346 340 284 290 112 302 8 301 228 155 154 34 142 231 224 253 283 353 236 166 160 156 156 143
53 36 264 328 57 49 143 237 291 264 245 157 211 288 249 314 308 297 297 299 4 332 328 305 273 309 326 40 212 129 168 47 91 140 99 269 247 196 290 293 170 158 131 133 131
76 13 303 0 44 48 98 222 292 303 310 300 227 268 252 313 310 285 306 294 350 334 335 310 310 293 285 236 258 58 42 25 143 169 209 265 287 340 290 276 135 113 110 111 116
92 278 343 66 75 335 302 298 257 312 321 325 294 51 172 301 320 268 297 281 324 339 341 334 309 317 336 53 26 36 324 5 79 82 238 218 65 344 35 66 96 108 105 103 105
80 8 333 44 189 148 341 283 309 239 261 269 293 319 2 284 221 293 309 314 321 343 340 341 327 354 332 307 289 297 347 10 84 5 318 41 9 21 49 55 74 91 95 98 101
39 120 162 304 320 357 76 276 291 306 246 322 313 244 291 310 320 220 301 322 341 357 351 7 292 338 298 313 310 323 355 35 51 8 43 358 38 19 16 58 52 95 104 105 93
125 138 182 232 272 317 274 262 271 313 298 312 247 302 294 262 227 308 319 340 314 335 342 342 308 326 293 335 342 5 21 13 33 48 72 21 49 11 47 82 89 84 87 98 117
120 36 112 304 2 68 252 296 325 351 308 355 354 317 292 267 287 280 276 286 289 312 331 324 336 332 301 321 305 24 357 354 21 41 5 40 339 339 35 50 68 82 91 107 115